User: anonymous
Location: Simi Valley
(34.2690°N, 118.7810°W)
Time: 14:53:24
(UTC-07:00)
Language:

TITAN 4B R/B - Orbit

View from above orbital plane
View from above orbital plane
View from above satellite
View from above satellite

Ground track
Ground track

The orbit data is extracted from the following two-line orbital elements,

1 28647U 05016B   14097.87753346 0.00007000  00000-0  46417-3 0    08
2 28647  57.0066  57.1814 0135548  32.7613 327.2386 14.99535706    07
Epoch (UTC): 07 April 2014 21:03:38
Eccentricity: 0.0135548
inclination: 57.0066°
perigee height: 474 km
apogee height: 662 km
right ascension of ascending node: 57.1814°
argument of perigee: 32.7613°
revolutions per day: 14.99535706
mean anomaly at epoch: 327.2386°
orbit number at epoch: 0

The dashed part of the orbit path shows where the satellite is in the earth's shadow,  

DLR